Wind_Speed
68 67 67 65 61 57 56 55 53 51 51 50 49 48 48 49 49 49 49 50 51 52 52 52 51 50 50 50 50 49 49 49 48 47 49 54 55 52 50 49 51 52 52 52 52 53 56 59 61 62 62 62 62 63 64 64 64 66 68 69 69 70 71
69 67 66 67 66 61 57 56 56 54 52 51 51 51 51 51 50 49 49 49 50 50 51 52 52 53 53 53 52 52 51 49 48 48 50 54 55 53 51 51 53 55 54 53 53 55 57 59 61 62 62 62 63 63 63 62 63 66 68 69 69 69 70
68 67 67 68 68 64 59 57 56 56 54 53 53 53 53 52 51 50 49 49 49 49 48 48 48 50 52 53 54 53 52 50 48 49 52 54 55 54 52 53 55 56 56 55 54 56 58 59 62 61 61 62 63 63 62 61 62 65 66 67 68 68 68
66 65 65 65 65 63 60 58 57 57 56 55 55 54 55 54 53 51 50 49 48 48 47 45 44 45 47 49 52 53 53 51 49 50 53 54 55 55 54 55 56 57 57 56 55 57 59 61 62 60 59 61 62 62 62 61 62 64 65 66 67 67 66
67 63 61 60 60 60 59 58 58 58 57 56 56 56 56 56 54 52 49 48 47 46 46 45 43 43 43 45 49 52 53 51 49 51 54 54 55 55 56 56 57 58 58 58 57 57 59 61 62 59 57 60 62 62 62 61 62 64 64 64 66 66 64
76 68 62 59 59 59 59 60 60 59 57 56 56 57 57 56 55 53 49 45 44 43 42 42 42 42 42 43 45 50 52 51 49 50 51 53 54 56 58 58 58 59 59 59 58 58 59 62 61 58 57 59 61 61 61 60 61 62 63 63 64 64 62
85 77 70 66 64 60 59 60 61 60 58 57 58 58 58 57 56 53 48 44 42 41 40 40 41 42 42 42 44 47 51 51 49 48 49 51 53 55 57 59 59 59 59 58 58 57 59 61 59 57 57 58 59 60 61 61 61 61 62 63 63 62 59
85 84 78 74 70 67 62 60 60 60 59 59 60 60 59 58 55 51 46 43 42 40 39 40 41 43 44 44 45 47 49 51 51 49 49 50 53 55 57 58 58 57 57 57 56 57 59 59 57 56 57 57 57 59 60 61 63 62 62 62 61 59 56
77 82 81 78 73 70 68 63 59 59 59 60 61 61 59 57 54 50 46 43 42 42 42 43 43 45 45 46 48 48 48 51 51 51 51 52 54 55 56 56 55 54 55 55 56 57 58 57 55 56 56 55 56 58 59 61 63 62 62 62 60 57 54
67 71 73 72 68 65 66 63 59 59 59 60 61 60 58 55 51 49 46 44 43 42 43 44 46 47 48 49 51 49 48 50 51 51 53 54 54 54 53 52 51 52 54 55 55 56 56 55 54 54 54 54 55 58 59 61 62 62 63 63 60 55 51
58 60 61 62 62 62 62 61 59 59 59 58 58 56 55 51 49 47 46 45 44 43 44 45 46 48 50 51 52 50 48 49 50 51 52 53 52 51 51 50 50 52 55 55 54 53 54 53 52 52 53 54 55 57 59 60 61 62 63 63 60 54 47
50 50 51 56 59 59 60 60 60 61 60 58 56 54 52 50 49 48 47 47 47 46 46 46 48 49 50 51 52 49 47 47 49 50 51 51 50 50 50 49 51 53 54 53 52 52 53 52 52 51 52 54 56 57 58 59 60 62 63 63 60 54 46
42 41 42 50 56 55 55 57 59 62 62 60 57 54 52 51 50 49 48 47 45 45 46 47 48 50 50 51 51 47 44 46 49 50 50 49 48 49 49 50 52 53 52 50 50 51 51 51 50 51 51 53 56 58 58 58 60 62 63 62 59 53 46
36 35 35 43 50 51 49 49 53 58 61 59 57 55 53 52 50 48 46 45 43 43 45 47 48 50 50 50 49 45 43 47 50 51 49 48 48 49 49 50 52 52 51 50 50 50 50 49 49 50 51 53 56 58 58 59 60 61 62 60 56 51 46
33 31 32 39 45 47 46 45 46 51 55 56 56 54 52 49 48 46 45 46 44 44 45 47 48 48 48 47 45 43 44 48 51 50 49 48 48 49 49 51 52 51 50 50 50 50 49 48 48 50 51 53 56 57 57 59 60 61 61 58 53 49 45
30 30 31 35 38 39 40 41 44 46 49 52 52 51 48 45 44 44 43 44 44 45 47 47 46 45 43 43 42 42 44 48 50 50 48 47 47 47 49 51 51 50 49 49 50 49 47 47 48 49 51 54 56 56 57 59 59 59 59 56 51 47 43
27 28 28 29 30 31 34 38 42 44 47 48 47 46 45 44 44 43 42 41 42 45 47 45 42 41 40 40 41 43 45 47 49 49 48 46 46 46 49 50 49 49 48 48 49 47 46 46 48 49 52 54 55 56 58 59 58 57 57 54 50 46 40
23 25 24 24 26 29 32 36 39 42 44 45 44 43 44 43 44 44 43 42 43 44 44 42 39 38 38 40 42 43 44 46 48 48 47 46 46 47 48 48 47 47 48 48 47 45 45 46 47 49 52 53 54 56 58 59 57 56 54 51 49 46 38
21 22 21 23 26 28 31 36 40 41 41 42 42 41 41 41 41 43 44 43 41 40 38 37 37 36 37 40 41 42 43 45 45 46 45 45 45 45 46 46 45 45 46 46 44 43 44 46 47 50 52 53 54 57 58 58 57 55 53 50 48 45 39
20 21 23 25 25 25 29 36 41 41 40 40 40 39 40 40 40 41 41 38 35 32 31 33 34 35 35 37 39 40 40 41 41 42 42 41 41 42 43 43 43 44 44 43 41 41 43 45 47 49 51 52 54 56 57 57 55 53 51 50 46 43 39
21 22 24 24 23 23 26 32 37 38 37 37 36 36 38 39 39 37 35 31 27 26 27 31 33 34 33 34 35 36 35 35 35 36 36 37 37 39 40 41 41 42 42 40 39 40 42 44 46 48 50 52 54 56 56 55 53 51 50 48 45 40 37
23 23 23 22 22 23 25 27 30 32 31 31 31 31 33 34 32 30 27 25 24 24 26 30 32 32 30 30 30 30 29 29 30 31 32 34 35 36 37 39 40 40 39 37 37 39 41 43 45 47 49 52 54 55 54 53 51 50 49 47 43 39 37
22 23 23 21 20 22 23 24 24 24 24 26 27 27 27 27 25 23 23 23 23 24 25 28 29 28 27 26 25 25 25 25 26 27 29 31 32 34 35 37 39 38 36 35 36 38 40 42 44 46 48 51 53 53 52 50 49 49 48 44 41 38 37
21 23 23 20 18 19 21 23 23 22 22 24 26 25 24 22 21 21 22 22 21 22 23 24 25 24 23 22 22 22 22 23 24 26 27 29 31 33 35 36 36 35 33 34 36 37 39 41 43 45 47 50 51 50 49 48 47 47 46 42 37 36 36
18 20 21 19 18 18 19 20 21 21 22 24 25 23 21 21 20 21 21 20 19 19 19 20 21 21 21 20 20 21 22 23 24 26 28 30 32 33 35 34 33 32 32 34 35 37 39 40 42 44 47 49 49 47 45 45 45 45 43 38 35 34 35
15 17 18 18 18 17 17 18 19 20 21 22 22 21 20 20 21 21 20 18 17 16 16 17 18 18 18 19 19 21 22 24 25 27 29 31 32 33 33 32 31 31 31 33 35 36 38 39 41 43 46 47 46 43 42 42 42 42 40 35 33 34 35
13 13 14 14 14 16 17 17 18 19 19 19 18 18 18 19 20 20 19 17 15 15 16 16 16 15 16 17 18 20 22 23 25 27 29 30 31 31 30 29 29 30 31 32 34 35 37 38 40 43 45 44 42 40 40 40 40 40 36 32 30 32 34
11 11 12 12 14 16 17 17 17 18 18 17 17 17 17 17 18 18 18 16 16 17 17 16 15 15 15 16 17 19 20 22 24 26 28 30 30 29 28 27 27 29 30 32 33 35 36 38 40 42 43 41 39 38 37 38 39 38 34 29 28 30 32
11 12 13 14 14 15 15 16 16 16 15 15 17 17 16 16 16 16 16 16 16 17 17 16 15 15 15 15 16 18 20 22 24 26 28 28 27 26 25 26 27 29 30 31 33 34 36 38 40 42 42 39 37 35 35 35 37 37 33 28 27 29 30
11 13 15 15 14 14 14 14 14 14 14 15 16 17 16 16 15 15 15 16 16 16 16 15 14 14 14 15 17 18 21 22 24 26 27 26 25 24 24 25 27 28 29 30 32 33 35 38 40 41 40 37 35 34 33 33 34 34 31 26 25 29 30
11 12 14 14 14 14 14 14 14 14 14 15 15 16 17 17 16 16 16 16 15 15 15 14 14 14 14 16 17 19 21 23 24 25 24 23 22 22 23 25 26 27 28 30 31 33 35 37 39 39 38 35 34 32 32 31 32 32 30 25 23 26 30
9 12 13 14 15 15 14 15 16 15 15 15 15 16 17 17 17 17 16 15 15 15 16 15 14 14 15 17 18 20 22 22 23 23 22 21 20 21 23 24 25 26 27 29 31 32 34 37 38 37 35 33 32 31 31 31 30 31 30 25 21 23 27
3 7 10 12 14 15 16 16 16 16 16 15 15 16 17 17 17 17 16 16 15 16 16 15 15 15 16 18 19 20 21 21 21 21 20 19 19 20 23 24 24 26 27 28 30 32 34 37 37 36 33 32 30 29 30 30 29 29 29 26 22 20 23
3 2 5 8 10 12 13 15 16 17 17 18 17 17 17 18 18 17 17 17 17 17 17 16 16 16 18 19 19 20 20 20 20 19 18 18 19 21 22 23 24 25 27 28 29 31 34 36 36 34 32 31 29 28 29 29 28 28 28 26 22 20 20
5 2 2 4 6 8 11 13 15 16 18 20 20 20 19 19 19 18 18 18 18 18 17 16 17 18 19 20 20 20 20 19 18 17 16 17 19 21 22 23 24 25 26 27 29 31 33 35 34 32 30 29 28 27 27 27 27 27 27 26 23 19 19
8 4 2 2 3 5 8 11 14 16 19 21 22 22 21 20 19 18 17 17 17 17 16 16 17 19 19 20 19 19 18 17 15 15 16 18 20 21 22 23 24 24 25 26 28 31 33 34 33 30 29 28 27 26 26 26 26 26 25 25 24 19 17
Wind_Direction
264 263 263 265 267 267 265 264 264 264 264 263 262 262 262 262 263 263 264 264 264 262 260 258 258 259 261 263 264 265 266 267 268 270 272 273 272 273 276 280 283 286 287 287 290 292 293 294 296 297 297 297 300 302 304 306 306 306 307 308 309 311 312
261 260 261 263 265 265 263 261 261 263 264 264 262 261 261 262 263 263 263 264 264 264 261 259 258 260 262 264 265 266 267 266 267 269 272 272 271 273 276 280 284 286 286 287 289 292 294 295 297 297 297 297 300 302 304 305 306 307 308 309 310 312 314
257 257 258 260 261 261 260 258 259 260 261 262 262 260 260 262 263 262 262 263 264 265 264 262 261 261 262 263 265 265 266 265 265 268 271 272 272 273 276 280 283 285 286 287 290 293 294 295 297 297 296 298 300 302 304 305 306 308 309 310 311 313 314
253 254 255 255 256 256 256 256 256 256 258 260 261 261 261 262 263 262 260 261 263 265 267 267 267 266 265 265 264 264 264 264 265 268 270 271 272 274 276 279 282 284 285 288 291 293 294 295 296 296 296 298 300 302 304 305 307 309 310 311 312 314 314
251 250 251 252 253 252 253 254 253 253 254 257 259 260 260 260 260 259 258 259 262 266 269 271 273 273 272 270 268 265 263 263 265 267 269 270 271 273 275 277 281 283 284 288 291 293 294 295 296 295 296 298 299 302 304 306 308 309 310 311 312 314 313
252 250 249 251 252 251 249 250 251 251 251 254 256 257 257 257 256 255 255 257 261 265 269 272 275 276 276 274 272 268 265 264 265 267 268 269 271 272 274 276 280 281 283 287 290 292 293 295 295 295 297 298 300 303 304 306 308 309 310 311 313 313 312
250 248 247 249 252 252 249 248 249 249 249 251 252 253 253 253 252 251 251 254 258 263 268 273 276 277 278 277 276 273 270 267 266 267 269 270 271 272 273 276 278 280 282 286 289 291 293 295 295 295 297 299 301 303 305 307 308 308 310 312 313 313 311
247 244 243 246 249 250 250 249 249 249 249 249 249 249 248 248 247 247 248 251 254 260 268 275 278 279 279 279 278 277 275 270 267 267 269 270 271 272 273 275 277 279 282 286 289 292 293 294 295 296 298 300 301 303 306 307 308 308 310 312 313 313 310
246 242 240 242 246 248 249 250 248 247 249 249 248 248 246 245 245 245 246 249 254 261 268 275 280 281 280 280 280 279 277 272 268 267 268 269 270 272 273 275 278 280 284 287 290 292 293 294 295 296 298 300 302 304 306 307 308 309 311 312 313 314 309
246 242 240 240 241 242 245 247 246 245 246 247 247 247 245 245 244 244 246 251 259 266 271 275 280 280 279 279 280 278 275 273 271 269 269 269 270 272 273 276 279 282 286 289 290 292 293 294 295 296 298 300 302 304 306 307 308 310 311 312 314 314 309
245 240 239 238 237 236 238 241 242 243 244 245 245 245 244 243 243 244 249 254 260 266 270 274 279 278 276 276 275 273 272 272 271 269 269 269 270 272 274 276 281 285 288 289 290 292 293 293 294 296 298 301 302 304 307 308 309 311 312 312 314 315 309
244 239 238 236 233 234 234 235 237 241 242 243 243 243 243 243 244 248 252 256 261 266 269 274 279 279 276 273 270 269 270 269 269 268 268 268 269 272 274 277 284 287 288 289 290 292 292 292 295 297 299 301 303 305 307 309 310 311 312 313 314 316 310
244 241 241 237 234 234 235 234 236 238 241 241 241 241 242 244 248 252 255 259 263 267 271 276 279 279 276 271 269 268 267 266 266 267 268 268 270 272 275 280 285 287 287 288 289 290 291 293 296 298 301 303 304 306 308 310 312 313 313 314 315 315 309
244 242 243 238 236 236 236 236 236 237 239 240 240 241 243 246 250 253 256 260 263 267 273 276 277 276 274 271 270 267 264 262 264 266 267 268 270 273 277 283 286 287 288 289 289 290 292 295 298 299 302 305 306 308 310 311 313 313 312 314 315 314 308
243 244 243 238 236 238 238 238 237 237 238 240 241 242 244 247 251 255 257 258 261 266 272 273 274 275 273 271 268 264 260 260 262 264 267 268 271 276 281 285 286 287 288 289 289 291 294 297 299 302 305 307 308 309 311 313 314 313 313 314 315 314 307
242 243 241 236 236 239 240 238 236 236 239 242 243 243 244 246 250 255 257 258 260 264 267 269 272 274 272 268 264 259 258 259 260 263 266 269 274 280 284 286 286 287 288 289 290 292 295 298 301 304 307 308 309 311 312 313 314 313 313 314 315 314 307
241 242 239 235 234 238 240 238 236 235 238 242 245 246 247 247 249 253 257 258 261 264 265 266 270 273 269 262 257 255 256 257 258 262 266 271 277 282 284 285 286 287 288 289 290 294 297 300 303 307 309 309 311 312 312 313 314 314 314 315 316 314 309
237 239 233 226 228 236 240 238 237 238 239 242 246 248 250 251 251 253 256 259 260 263 263 264 269 271 263 255 253 253 254 255 257 262 267 273 278 282 283 284 286 287 288 289 292 295 298 302 306 308 309 310 311 312 313 314 315 315 315 316 317 315 312
228 229 224 221 228 239 241 237 238 241 242 243 245 248 250 252 252 254 257 260 260 261 261 264 269 268 259 252 251 252 254 256 259 264 269 273 278 280 282 284 286 287 288 290 293 296 300 304 308 309 310 311 312 313 314 315 316 316 317 318 318 316 315
218 222 224 226 231 239 240 236 236 240 243 244 245 247 249 250 251 255 260 261 260 260 262 267 269 266 257 252 252 254 257 259 262 266 269 273 276 279 281 283 285 286 288 290 293 297 302 306 308 309 310 311 312 314 316 317 317 318 319 320 319 317 317
219 221 225 228 228 232 236 236 237 239 242 244 246 249 250 250 252 257 261 261 260 261 265 268 267 261 255 252 253 255 258 260 262 265 269 272 276 278 280 282 284 286 288 290 293 298 303 307 308 309 310 312 314 316 317 318 318 319 321 321 319 317 319
223 222 224 225 226 229 234 236 237 238 240 241 244 248 250 249 252 256 257 256 257 259 263 263 260 256 253 251 252 253 255 259 262 266 270 273 276 278 280 282 284 286 288 290 294 300 304 307 308 309 311 314 316 318 318 319 320 321 322 321 318 318 322
223 221 222 224 226 230 232 231 230 231 234 237 241 246 247 248 250 251 250 250 252 254 256 255 252 250 248 248 250 252 255 260 264 268 271 274 277 279 282 283 284 286 288 291 296 302 305 307 309 311 313 316 319 319 319 320 321 322 322 321 318 319 325
228 227 227 228 229 227 224 221 222 225 229 235 241 245 246 247 247 245 246 249 249 249 250 249 247 246 246 247 251 255 259 263 267 270 274 276 279 282 283 283 285 286 289 293 299 304 307 309 310 312 315 319 320 320 320 320 321 322 323 320 317 319 325
234 234 232 230 226 220 216 217 221 226 231 237 243 245 245 245 244 242 244 247 247 247 248 248 248 248 248 250 253 257 261 265 269 273 276 279 281 282 282 284 285 286 290 295 301 305 308 310 311 314 318 320 320 319 320 320 321 324 323 319 316 319 326
232 233 228 224 218 214 216 220 224 227 231 236 241 244 245 245 243 240 241 244 246 246 248 250 251 250 251 253 255 259 263 267 271 275 277 279 280 280 282 284 285 287 292 298 303 307 309 311 313 317 319 319 319 320 320 320 323 325 323 318 315 320 327
237 234 225 219 215 213 218 223 228 232 233 236 240 244 246 246 242 239 240 243 243 246 251 255 257 257 258 258 260 263 267 270 274 275 276 277 278 280 282 283 284 289 295 300 305 308 310 312 315 317 319 320 320 321 320 322 325 327 324 316 314 319 327
248 240 229 224 220 219 221 227 234 239 238 238 242 244 244 244 240 239 241 243 244 249 256 262 265 265 265 265 267 269 271 272 273 274 275 276 278 280 281 282 285 292 298 303 307 310 311 313 315 318 320 321 321 321 322 324 328 330 325 316 312 318 327
248 237 230 228 225 224 228 232 239 244 241 237 239 241 241 242 241 241 243 244 247 254 260 264 268 270 271 272 271 271 272 272 273 274 275 276 278 278 280 282 288 295 300 305 309 310 311 314 317 319 322 323 322 322 324 327 331 332 326 316 313 318 326
248 241 236 234 232 232 234 238 244 248 243 237 237 238 240 243 245 248 249 248 250 258 264 268 271 273 274 273 272 271 272 273 275 276 276 276 276 277 279 284 291 297 302 306 309 311 313 315 318 321 323 324 323 323 325 328 333 334 328 318 314 319 326
249 246 241 239 238 238 241 247 252 253 248 242 240 239 241 246 248 251 254 253 254 261 266 270 273 274 273 273 272 272 273 275 276 276 275 274 273 275 281 288 294 299 304 307 309 311 314 316 319 322 324 324 323 324 326 330 335 337 332 321 314 318 324
247 242 241 243 244 245 249 254 257 258 254 248 244 241 243 248 249 250 252 253 255 260 265 269 272 273 273 274 274 274 276 277 277 275 272 271 272 277 284 291 297 301 305 307 309 311 314 317 320 323 325 324 324 325 328 331 336 340 337 325 315 318 325
259 238 240 244 247 252 256 258 260 261 260 256 252 247 245 247 248 247 247 250 255 261 264 267 271 273 274 276 277 278 280 279 275 271 268 268 274 281 288 294 299 303 305 307 310 313 316 319 322 324 325 325 324 326 329 331 335 341 341 332 320 319 325
309 246 242 250 252 255 259 260 260 260 259 258 257 253 251 251 251 250 249 249 254 259 263 266 270 272 274 277 279 280 280 276 271 266 265 269 278 284 290 296 301 303 305 308 312 315 317 319 322 324 325 326 326 326 329 332 336 341 344 340 328 319 322
325 304 252 260 258 257 257 257 256 255 252 252 253 253 253 254 255 254 251 248 250 256 261 264 268 270 273 277 279 279 276 270 265 263 266 274 282 288 293 299 301 302 306 310 313 316 318 320 322 324 325 325 326 326 327 331 335 339 343 345 337 324 318
25 26 10 339 296 274 267 260 255 253 250 249 249 250 252 254 254 252 247 244 248 255 259 262 266 270 274 277 277 274 268 261 258 262 270 278 285 291 296 299 301 302 307 311 314 316 318 320 322 323 324 324 325 325 325 328 333 337 341 345 345 336 320
Height
5376 5377 5378 5379 5380 5380 5381 5383 5383 5384 5385 5386 5387 5388 5388 5388 5389 5390 5390 5390 5390 5390 5391 5391 5391 5391 5391 5392 5394 5394 5395 5395 5395 5395 5395 5395 5395 5394 5394 5393 5392 5392 5393 5390 5386 5384 5381 5375 5370 5366 5360 5355 5353 5348 5343 5340 5334 5329 5324 5318 5313 5306 5299
5364 5365 5367 5368 5370 5370 5371 5373 5374 5375 5377 5378 5379 5380 5380 5381 5382 5383 5383 5383 5383 5383 5383 5383 5384 5384 5384 5385 5386 5387 5388 5388 5388 5388 5388 5388 5388 5387 5386 5385 5385 5384 5384 5383 5379 5376 5373 5368 5363 5360 5353 5347 5345 5342 5338 5334 5327 5321 5316 5310 5303 5298 5291
5352 5354 5355 5357 5359 5360 5361 5363 5364 5366 5369 5370 5371 5372 5372 5373 5375 5376 5376 5376 5376 5376 5376 5377 5377 5377 5377 5378 5379 5380 5380 5381 5381 5381 5381 5381 5381 5380 5380 5378 5377 5376 5375 5375 5372 5368 5365 5361 5357 5353 5347 5340 5337 5334 5331 5327 5321 5314 5308 5301 5295 5289 5283
5341 5343 5344 5346 5348 5349 5350 5352 5354 5357 5359 5361 5363 5364 5364 5365 5367 5368 5369 5369 5369 5369 5370 5370 5370 5370 5370 5371 5372 5373 5373 5373 5374 5374 5374 5375 5374 5373 5373 5371 5369 5368 5367 5366 5365 5361 5357 5354 5350 5346 5341 5334 5331 5328 5323 5319 5314 5307 5301 5294 5287 5281 5276
5331 5332 5334 5336 5337 5339 5341 5343 5345 5347 5349 5352 5354 5355 5356 5358 5359 5360 5361 5362 5362 5362 5363 5364 5363 5363 5363 5364 5365 5365 5366 5366 5367 5368 5368 5368 5367 5366 5365 5364 5362 5361 5359 5358 5358 5355 5350 5346 5342 5339 5334 5327 5324 5321 5316 5311 5306 5300 5293 5287 5280 5274 5268
5318 5322 5324 5326 5327 5329 5331 5333 5335 5338 5340 5342 5344 5346 5347 5349 5351 5352 5354 5355 5355 5356 5356 5357 5357 5357 5357 5358 5358 5358 5359 5360 5360 5361 5361 5361 5360 5359 5357 5356 5355 5353 5352 5351 5350 5348 5344 5339 5335 5331 5327 5320 5315 5313 5309 5305 5300 5293 5286 5279 5273 5268 5261
5303 5309 5312 5314 5317 5320 5322 5323 5325 5328 5331 5333 5335 5336 5338 5341 5343 5344 5346 5347 5348 5348 5350 5350 5350 5350 5350 5351 5351 5351 5352 5353 5354 5354 5354 5354 5352 5351 5350 5349 5348 5347 5346 5344 5343 5341 5337 5333 5328 5323 5319 5315 5309 5304 5300 5296 5293 5288 5280 5272 5266 5261 5254
5286 5292 5298 5302 5305 5309 5312 5314 5317 5320 5322 5324 5325 5327 5329 5332 5334 5337 5339 5340 5340 5341 5342 5343 5343 5343 5343 5343 5344 5345 5346 5347 5347 5347 5347 5346 5345 5344 5343 5342 5341 5340 5339 5338 5336 5334 5330 5326 5321 5315 5311 5308 5303 5297 5293 5287 5283 5280 5274 5267 5261 5254 5247
5270 5275 5283 5289 5293 5297 5300 5305 5308 5311 5313 5315 5316 5318 5321 5323 5327 5329 5331 5332 5333 5334 5335 5336 5336 5336 5336 5336 5336 5338 5340 5340 5341 5341 5341 5339 5338 5337 5336 5336 5335 5334 5333 5331 5329 5326 5322 5319 5314 5308 5304 5301 5296 5291 5287 5281 5275 5271 5265 5260 5255 5248 5239
5256 5262 5269 5276 5282 5285 5289 5294 5299 5301 5303 5305 5307 5310 5313 5316 5319 5322 5323 5325 5326 5327 5328 5329 5330 5329 5329 5329 5330 5331 5333 5334 5335 5335 5334 5332 5331 5330 5330 5330 5329 5328 5326 5324 5322 5319 5315 5312 5308 5302 5297 5294 5289 5284 5279 5274 5267 5263 5257 5251 5248 5243 5233
5246 5252 5259 5265 5271 5275 5278 5283 5288 5291 5293 5296 5299 5302 5305 5309 5312 5314 5316 5318 5319 5320 5321 5322 5323 5323 5322 5322 5323 5325 5326 5328 5329 5328 5327 5326 5325 5324 5323 5323 5322 5321 5319 5317 5315 5312 5308 5305 5302 5297 5291 5287 5283 5278 5273 5266 5260 5254 5249 5243 5239 5237 5229
5238 5245 5251 5257 5262 5266 5269 5274 5278 5281 5284 5287 5291 5295 5299 5302 5304 5306 5308 5310 5311 5313 5314 5315 5316 5315 5314 5315 5316 5318 5320 5322 5322 5321 5320 5319 5318 5318 5317 5316 5315 5314 5312 5310 5308 5306 5302 5298 5295 5291 5286 5280 5275 5271 5266 5260 5253 5246 5240 5235 5230 5228 5224
5234 5240 5245 5249 5254 5257 5261 5264 5268 5270 5274 5278 5283 5288 5291 5294 5297 5299 5301 5302 5304 5305 5307 5308 5308 5307 5307 5308 5310 5312 5314 5315 5315 5315 5314 5313 5312 5311 5311 5310 5308 5307 5306 5304 5301 5299 5296 5292 5288 5284 5280 5274 5268 5264 5259 5253 5247 5239 5232 5228 5223 5219 5216
5231 5235 5239 5243 5246 5250 5253 5257 5259 5262 5266 5271 5275 5280 5284 5287 5290 5292 5294 5295 5296 5298 5300 5300 5300 5300 5300 5301 5303 5306 5307 5308 5308 5308 5308 5307 5306 5305 5304 5303 5302 5300 5299 5297 5294 5292 5289 5285 5281 5277 5272 5267 5260 5255 5250 5245 5239 5232 5225 5222 5217 5212 5207
5227 5231 5233 5236 5240 5243 5247 5251 5252 5255 5259 5263 5268 5273 5278 5282 5283 5285 5287 5288 5289 5291 5292 5293 5293 5293 5293 5295 5297 5300 5301 5301 5301 5302 5302 5301 5300 5300 5299 5297 5295 5294 5292 5289 5287 5285 5282 5278 5274 5269 5264 5259 5254 5249 5243 5237 5232 5225 5219 5215 5212 5206 5200
5222 5225 5228 5231 5235 5239 5242 5244 5246 5249 5253 5258 5263 5267 5272 5276 5278 5278 5280 5281 5283 5284 5285 5286 5287 5287 5287 5289 5291 5293 5294 5294 5295 5295 5295 5295 5294 5294 5292 5290 5289 5288 5285 5283 5280 5278 5275 5271 5267 5263 5257 5252 5247 5242 5236 5231 5225 5218 5212 5208 5205 5201 5195
5218 5221 5224 5227 5230 5233 5236 5238 5240 5245 5250 5254 5259 5262 5266 5271 5272 5271 5273 5275 5276 5277 5279 5280 5281 5281 5282 5283 5284 5286 5287 5288 5289 5289 5289 5289 5289 5288 5286 5284 5283 5281 5279 5276 5274 5271 5268 5264 5260 5256 5250 5245 5240 5234 5229 5224 5219 5212 5206 5202 5198 5195 5191
5215 5218 5220 5223 5226 5228 5230 5233 5236 5241 5247 5250 5254 5257 5261 5264 5266 5265 5266 5268 5270 5271 5273 5275 5275 5276 5276 5277 5278 5280 5281 5282 5283 5284 5284 5284 5283 5282 5280 5278 5277 5275 5272 5270 5267 5264 5261 5257 5253 5249 5244 5239 5234 5228 5222 5217 5212 5206 5200 5196 5191 5188 5186
5212 5215 5217 5219 5221 5224 5226 5229 5234 5239 5243 5246 5249 5253 5256 5259 5260 5260 5260 5262 5264 5266 5267 5269 5270 5270 5270 5271 5272 5274 5275 5277 5278 5279 5278 5278 5278 5276 5274 5273 5271 5269 5267 5264 5261 5258 5255 5251 5247 5243 5239 5233 5228 5222 5216 5210 5204 5199 5194 5190 5185 5180 5178
5209 5211 5213 5215 5218 5220 5223 5227 5232 5236 5240 5243 5246 5249 5251 5253 5254 5254 5254 5256 5259 5261 5262 5263 5264 5264 5264 5265 5267 5269 5270 5272 5273 5273 5273 5273 5272 5271 5269 5267 5266 5264 5262 5259 5256 5253 5250 5246 5242 5237 5233 5228 5222 5216 5210 5203 5198 5193 5188 5184 5180 5175 5171
5205 5208 5210 5212 5215 5218 5221 5225 5229 5233 5236 5239 5242 5245 5246 5247 5249 5249 5250 5251 5253 5255 5256 5257 5258 5259 5259 5261 5262 5264 5265 5266 5267 5267 5267 5267 5267 5266 5264 5262 5261 5259 5257 5254 5252 5249 5245 5242 5237 5233 5228 5222 5216 5210 5203 5197 5192 5187 5182 5178 5174 5171 5167
5202 5205 5208 5210 5213 5216 5219 5223 5226 5229 5232 5235 5237 5240 5241 5242 5244 5245 5246 5247 5248 5250 5251 5252 5253 5254 5255 5256 5257 5258 5260 5261 5262 5262 5262 5262 5261 5261 5259 5258 5256 5254 5252 5250 5247 5244 5241 5238 5233 5228 5223 5216 5210 5204 5198 5192 5187 5182 5178 5173 5169 5165 5163
5200 5203 5206 5208 5211 5214 5217 5220 5224 5226 5228 5231 5233 5235 5236 5238 5239 5241 5241 5243 5244 5245 5246 5247 5248 5249 5250 5251 5252 5253 5255 5256 5257 5257 5257 5257 5256 5256 5255 5253 5251 5249 5247 5245 5243 5240 5237 5233 5229 5223 5218 5212 5205 5199 5192 5187 5183 5178 5173 5169 5164 5161 5158
5199 5201 5204 5207 5209 5212 5214 5218 5221 5223 5225 5228 5230 5231 5233 5234 5235 5237 5237 5239 5240 5241 5242 5243 5244 5245 5246 5247 5248 5249 5250 5251 5252 5252 5252 5252 5251 5251 5249 5248 5246 5244 5243 5241 5238 5236 5232 5228 5224 5219 5213 5207 5201 5195 5189 5183 5179 5175 5170 5165 5161 5158 5155
5198 5200 5202 5205 5208 5210 5213 5216 5218 5220 5223 5225 5226 5228 5229 5231 5232 5233 5234 5235 5236 5237 5238 5239 5240 5241 5242 5243 5244 5245 5246 5246 5247 5247 5247 5247 5247 5246 5244 5243 5242 5240 5238 5236 5234 5231 5228 5224 5220 5214 5209 5203 5198 5192 5186 5181 5176 5171 5166 5162 5159 5155 5153
5197 5199 5201 5204 5206 5208 5211 5214 5216 5218 5220 5221 5223 5224 5226 5227 5228 5229 5231 5232 5233 5234 5235 5236 5236 5237 5238 5239 5240 5241 5241 5242 5242 5243 5243 5243 5242 5241 5240 5239 5237 5236 5234 5232 5229 5227 5223 5219 5215 5210 5205 5200 5195 5190 5184 5179 5174 5169 5163 5159 5156 5153 5150
5196 5198 5200 5202 5204 5207 5209 5211 5213 5215 5217 5218 5220 5221 5222 5224 5225 5226 5228 5229 5230 5231 5232 5232 5233 5234 5234 5235 5236 5237 5237 5238 5238 5238 5238 5238 5237 5237 5236 5234 5233 5232 5230 5228 5225 5222 5219 5215 5211 5206 5202 5196 5191 5187 5182 5177 5172 5167 5162 5158 5155 5152 5149
5194 5196 5197 5200 5202 5205 5207 5209 5210 5212 5214 5215 5217 5218 5219 5220 5222 5223 5225 5226 5227 5228 5228 5229 5230 5230 5231 5232 5232 5233 5234 5234 5234 5234 5234 5234 5233 5232 5232 5231 5230 5228 5226 5224 5221 5218 5215 5211 5207 5202 5198 5193 5189 5184 5179 5175 5170 5165 5160 5156 5154 5151 5147
5193 5194 5196 5198 5200 5203 5204 5206 5208 5209 5211 5213 5214 5215 5216 5217 5219 5220 5221 5223 5224 5224 5225 5226 5226 5227 5228 5228 5229 5230 5230 5230 5231 5231 5230 5230 5229 5229 5228 5227 5226 5224 5222 5220 5217 5214 5210 5207 5203 5198 5194 5190 5186 5182 5177 5173 5168 5163 5158 5154 5151 5149 5146
5193 5194 5196 5197 5199 5200 5202 5203 5205 5207 5208 5210 5211 5212 5213 5215 5216 5217 5218 5219 5220 5221 5222 5223 5224 5224 5225 5225 5226 5226 5227 5227 5227 5227 5227 5226 5226 5225 5224 5223 5222 5220 5218 5216 5213 5210 5207 5203 5199 5195 5191 5186 5182 5179 5175 5171 5166 5161 5157 5153 5150 5146 5144
5192 5193 5194 5196 5197 5198 5200 5201 5202 5204 5205 5207 5208 5210 5211 5212 5213 5215 5216 5216 5217 5218 5219 5220 5221 5221 5222 5222 5223 5223 5224 5224 5224 5224 5223 5223 5223 5222 5221 5220 5218 5216 5215 5212 5210 5207 5203 5200 5196 5192 5188 5184 5180 5176 5172 5169 5165 5160 5156 5152 5149 5145 5142
5190 5191 5192 5194 5195 5196 5198 5199 5200 5201 5203 5204 5206 5207 5209 5210 5211 5212 5213 5214 5215 5216 5217 5218 5219 5219 5219 5220 5220 5220 5220 5221 5221 5220 5220 5220 5220 5219 5218 5216 5215 5213 5211 5209 5206 5203 5200 5197 5193 5189 5185 5182 5178 5174 5170 5167 5163 5159 5154 5151 5148 5145 5141
5189 5189 5190 5192 5193 5194 5196 5196 5197 5199 5200 5202 5203 5205 5206 5208 5209 5210 5211 5212 5213 5214 5215 5215 5216 5216 5216 5217 5217 5217 5217 5218 5217 5217 5217 5217 5217 5216 5215 5213 5212 5210 5208 5205 5203 5200 5197 5193 5190 5186 5183 5180 5176 5172 5169 5165 5161 5158 5154 5150 5147 5144 5141
5188 5188 5189 5190 5191 5192 5193 5194 5195 5197 5198 5199 5201 5202 5204 5205 5206 5208 5209 5210 5211 5212 5212 5213 5213 5213 5214 5214 5214 5214 5215 5215 5215 5215 5214 5214 5214 5213 5212 5210 5208 5207 5205 5202 5200 5197 5194 5190 5187 5183 5180 5177 5174 5170 5167 5163 5160 5157 5153 5149 5146 5143 5141
5187 5187 5188 5188 5189 5190 5191 5192 5193 5194 5195 5197 5198 5199 5201 5202 5204 5205 5206 5207 5208 5209 5209 5210 5210 5211 5211 5211 5211 5212 5212 5212 5212 5212 5212 5212 5211 5210 5209 5207 5205 5203 5201 5199 5197 5194 5191 5188 5184 5181 5178 5175 5172 5169 5165 5162 5159 5156 5153 5149 5146 5143 5140
5186 5186 5187 5187 5188 5188 5189 5190 5190 5191 5192 5193 5195 5196 5198 5199 5201 5202 5203 5204 5205 5206 5206 5207 5207 5208 5208 5209 5209 5209 5209 5209 5210 5210 5210 5209 5208 5207 5206 5204 5202 5200 5199 5196 5194 5191 5188 5185 5182 5179 5176 5173 5170 5167 5164 5161 5158 5155 5152 5149 5146 5143 5140